| time (UTC) | temp F | wind direction | speed MPH | gust MPH | rain 1hr in | rain 24hr in | rain mn in | humidity % | barometer mb |
| 20260901063610 | 59 | 84 | 2.0 | 6.0 | 0.00 | 0.45 | 0.31 | 88 | 1022.9 |
| 20260901063104 | 59 | 34 | 2.0 | 6.0 | 0.00 | 0.45 | 0.31 | 89 | 1022.6 |
| 20260901062604 | 58 | 62 | 1.0 | 5.0 | 0.00 | 0.45 | 0.31 | 90 | 1022.6 |
| 20260901062102 | 58 | 46 | 1.0 | 4.0 | 0.00 | 0.45 | 0.31 | 90 | 1022.8 |
| 20260901061603 | 58 | 32 | 2.0 | 4.0 | 0.00 | 0.45 | 0.31 | 91 | 1022.6 |
| 20260901061103 | 58 | 66 | 2.0 | 4.0 | 0.00 | 0.45 | 0.31 | 91 | 1022.6 |
| 20260901060603 | 58 | 43 | 3.0 | 5.0 | 0.00 | 0.45 | 0.31 | 92 | 1022.8 |
| 20260901060100 | 58 | 44 | 2.0 | 5.0 | 0.00 | 0.45 | 0.31 | 92 | 1022.8 |
| 20260901055601 | 58 | 96 | 0.0 | 4.0 | 0.00 | 0.45 | 0.31 | 92 | 1022.9 |
| 20260901055334 | 58 | 84 | 0.0 | 3.0 | 0.00 | 0.45 | 0.31 | 91 | 1023.1 |
| 20260901054559 | 58 | 84 | 1.0 | 3.0 | 0.00 | 0.45 | 0.31 | 91 | 1023.0 |
| 20260901054058 | 58 | 84 | 1.0 | 3.0 | 0.00 | 0.45 | 0.31 | 91 | 1023.0 |
| 20260901053557 | 58 | 102 | 0.0 | 3.0 | 0.00 | 0.45 | 0.31 | 91 | 1023.0 |
| 20260901053054 | 58 | 124 | 0.0 | 1.0 | 0.00 | 0.45 | 0.31 | 91 | 1022.9 |
| 20260901052554 | 59 | 123 | 0.0 | 1.0 | 0.00 | 0.45 | 0.31 | 90 | 1022.9 |
| 20260901052051 | 59 | 123 | 0.0 | 2.0 | 0.00 | 0.45 | 0.31 | 90 | 1022.9 |
| 20260901051552 | 59 | 123 | 0.0 | 2.0 | 0.00 | 0.45 | 0.31 | 90 | 1022.9 |
| 20260901051323 | 59 | 123 | 0.0 | 2.0 | 0.00 | 0.45 | 0.31 | 90 | 1022.9 |
| 20260901050552 | 59 | 123 | 0.0 | 3.0 | 0.00 | 0.45 | 0.31 | 89 | 1022.9 |
| 20260901050045 | 60 | 123 | 0.0 | 3.0 | 0.00 | 0.45 | 0.31 | 89 | 1023.0 |
| 20260901045546 | 60 | 123 | 1.0 | 4.0 | 0.00 | 0.45 | 0.31 | 89 | 1022.8 |
| 20260901045044 | 60 | 125 | 1.0 | 4.0 | 0.00 | 0.45 | 0.31 | 89 | 1022.8 |
| 20260901044544 | 60 | 97 | 1.0 | 4.0 | 0.00 | 0.45 | 0.31 | 89 | 1022.6 |
| 20260901044314 | 60 | 102 | 1.0 | 4.0 | 0.00 | 0.45 | 0.31 | 89 | 1022.6 |
| 20260901043543 | 60 | 84 | 1.0 | 3.0 | 0.00 | 0.45 | 0.31 | 88 | 1022.5 |
| 20260901043042 | 60 | 84 | 0.0 | 3.0 | 0.00 | 0.45 | 0.31 | 87 | 1022.5 |
| 20260901042809 | 61 | 38 | 0.0 | 6.0 | 0.00 | 0.45 | 0.31 | 87 | 1022.4 |
| 20260901041538 | 61 | 38 | 2.0 | 7.0 | 0.00 | 0.45 | 0.31 | 87 | 1022.2 |
| 20260901041038 | 61 | 44 | 3.0 | 7.0 | 0.00 | 0.45 | 0.31 | 88 | 1022.0 |
| 20260901040539 | 61 | 65 | 2.0 | 5.0 | 0.00 | 0.45 | 0.31 | 88 | 1022.0 |
| 20260901035032 | 61 | 93 | 0.0 | 2.0 | 0.00 | 0.45 | 0.31 | 87 | 1021.8 |
| 20260901034527 | 61 | 94 | 0.0 | 2.0 | 0.00 | 0.45 | 0.31 | 87 | 1021.9 |
| 20260901034028 | 61 | 94 | 0.0 | 3.0 | 0.00 | 0.45 | 0.31 | 87 | 1021.9 |
| 20260901033029 | 61 | 94 | 1.0 | 3.0 | 0.00 | 0.45 | 0.31 | 87 | 1021.7 |
| 20260901032027 | 62 | 94 | 0.0 | 1.0 | 0.00 | 0.45 | 0.31 | 86 | 1021.7 |
| 20260901031800 | 62 | 94 | 0.0 | 1.0 | 0.00 | 0.45 | 0.31 | 85 | 1021.7 |
| 20260901031022 | 62 | 93 | 0.0 | 1.0 | 0.00 | 0.45 | 0.31 | 85 | 1021.6 |
| 20260901030522 | 62 | 94 | 0.0 | 2.0 | 0.00 | 0.45 | 0.31 | 85 | 1021.6 |
| 20260901030024 | 62 | 94 | 0.0 | 2.0 | 0.00 | 0.45 | 0.31 | 85 | 1021.6 |
| 20260901025523 | 62 | 94 | 0.0 | 2.0 | 0.00 | 0.45 | 0.31 | 86 | 1021.5 |
| 20260901025022 | 62 | 94 | 1.0 | 3.0 | 0.00 | 0.45 | 0.31 | 85 | 1021.3 |
| 20260901024756 | 62 | 94 | 0.0 | 3.0 | 0.00 | 0.45 | 0.31 | 85 | 1021.3 |
| 20260901024019 | 62 | 103 | 0.0 | 2.0 | 0.00 | 0.45 | 0.31 | 85 | 1021.2 |
| 20260901023518 | 62 | 122 | 0.0 | 0.0 | 0.00 | 0.45 | 0.31 | 85 | 1021.5 |
| 20260901023018 | 63 | 122 | 0.0 | 0.0 | 0.00 | 0.45 | 0.31 | 83 | 1021.5 |
| 20260901022520 | 63 | 122 | 0.0 | 0.0 | 0.00 | 0.45 | 0.31 | 83 | 1021.5 |
| 20260901022019 | 63 | 122 | 0.0 | 1.0 | 0.00 | 0.45 | 0.31 | 82 | 1021.3 |
| 20260901021520 | 63 | 122 | 0.0 | 1.0 | 0.00 | 0.45 | 0.31 | 81 | 1021.3 |
| 20260901021014 | 64 | 122 | 0.0 | 1.0 | 0.00 | 0.45 | 0.31 | 80 | 1021.2 |
| 20260901020514 | 64 | 122 | 0.0 | 1.0 | 0.00 | 0.45 | 0.31 | 79 | 1021.2 |
| 20260901020014 | 65 | 122 | 0.0 | 1.0 | 0.00 | 0.45 | 0.31 | 78 | 1021.2 |
| 20260901015514 | 65 | 122 | 0.0 | 1.0 | 0.00 | 0.45 | 0.31 | 78 | 1021.2 |
| 20260901015015 | 65 | 122 | 0.0 | 1.0 | 0.00 | 0.45 | 0.31 | 78 | 1021.3 |
| 20260901014746 | 65 | 122 | 0.0 | 0.0 | 0.00 | 0.45 | 0.31 | 77 | 1021.2 |
| 20260901014010 | 66 | 122 | 0.0 | 0.0 | 0.00 | 0.45 | 0.31 | 76 | 1021.1 |
| 20260901013511 | 66 | 122 | 0.0 | 0.0 | 0.00 | 0.45 | 0.31 | 76 | 1021.3 |
| 20260901013243 | 67 | 122 | 0.0 | 3.0 | 0.00 | 0.45 | 0.31 | 74 | 1021.3 |
| 20260901012510 | 67 | 122 | 0.0 | 3.0 | 0.00 | 0.45 | 0.31 | 73 | 1021.5 |
| 20260901012241 | 67 | 122 | 0.0 | 3.0 | 0.00 | 0.45 | 0.31 | 72 | 1021.3 |
| 20260901011512 | 67 | 122 | 0.0 | 3.0 | 0.00 | 0.45 | 0.31 | 72 | 1021.1 |
| 20260901011007 | 67 | 151 | 0.0 | 4.0 | 0.00 | 0.45 | 0.31 | 71 | 1021.1 |
| 20260901010507 | 68 | 128 | 0.0 | 4.0 | 0.00 | 0.45 | 0.31 | 71 | 1021.1 |
| 20260901010008 | 68 | 128 | 1.0 | 4.0 | 0.00 | 0.45 | 0.31 | 69 | 1021.2 |
| 20260901005506 | 68 | 105 | 1.0 | 4.0 | 0.00 | 0.45 | 0.31 | 68 | 1021.3 |
| 20260901005006 | 69 | 146 | 0.0 | 4.0 | 0.00 | 0.45 | 0.31 | 66 | 1021.2 |
| 20260901004508 | 69 | 145 | 0.0 | 3.0 | 0.00 | 0.45 | 0.31 | 65 | 1021.3 |
| 20260901004003 | 69 | 141 | 0.0 | 4.0 | 0.00 | 0.45 | 0.31 | 64 | 1021.3 |
| 20260901003504 | 69 | 117 | 0.0 | 4.0 | 0.00 | 0.45 | 0.31 | 65 | 1021.3 |
| 20260901003003 | 70 | 131 | 1.0 | 6.0 | 0.00 | 0.45 | 0.31 | 64 | 1021.5 |
| 20260901002502 | 70 | 144 | 1.0 | 6.0 | 0.00 | 0.45 | 0.31 | 64 | 1021.5 |
| 20260901002002 | 70 | 107 | 2.0 | 6.0 | 0.00 | 0.45 | 0.31 | 64 | 1021.5 |
| 20260901001504 | 70 | 124 | 1.0 | 6.0 | 0.00 | 0.45 | 0.31 | 63 | 1021.5 |
| 20260901001233 | 71 | 113 | 1.0 | 5.0 | 0.00 | 0.45 | 0.31 | 64 | 1021.5 |
| 20260901000458 | 71 | 138 | 1.0 | 5.0 | 0.00 | 0.45 | 0.31 | 63 | 1021.7 |
| 20260831235959 | 71 | 87 | 1.0 | 5.0 | 0.00 | 0.45 | 0.31 | 63 | 1021.7 |
| 20260831235458 | 71 | 255 | 1.0 | 5.0 | 0.00 | 0.45 | 0.31 | 62 | 1021.8 |
| 20260831235000 | 72 | 148 | 1.0 | 3.0 | 0.00 | 0.45 | 0.31 | 62 | 1021.8 |
| 20260831234732 | 72 | 153 | 1.0 | 4.0 | 0.00 | 0.45 | 0.31 | 62 | 1021.9 |
| 20260831233955 | 72 | 147 | 1.0 | 4.0 | 0.00 | 0.45 | 0.31 | 61 | 1021.8 |
| 20260831233455 | 72 | 167 | 1.0 | 4.0 | 0.00 | 0.45 | 0.31 | 61 | 1022.0 |
| 20260831232955 | 72 | 157 | 0.0 | 6.0 | 0.00 | 0.45 | 0.31 | 60 | 1022.0 |
| 20260831232454 | 72 | 164 | 1.0 | 6.0 | 0.00 | 0.45 | 0.31 | 60 | 1022.0 |
| 20260831232228 | 72 | 158 | 2.0 | 7.0 | 0.00 | 0.45 | 0.31 | 62 | 1022.0 |
| 20260831231456 | 72 | 90 | 1.0 | 7.0 | 0.00 | 0.45 | 0.31 | 63 | 1022.0 |
| 20260831230950 | 72 | 178 | 2.0 | 8.0 | 0.00 | 0.45 | 0.31 | 63 | 1022.0 |
| 20260831230452 | 71 | 131 | 3.0 | 8.0 | 0.00 | 0.45 | 0.31 | 62 | 1022.0 |
| 20260831225950 | 71 | 150 | 3.0 | 10.0 | 0.00 | 0.45 | 0.31 | 63 | 1022.0 |
| 20260831225450 | 71 | 151 | 3.0 | 10.0 | 0.00 | 0.45 | 0.31 | 63 | 1022.0 |
| 20260831224953 | 70 | 117 | 4.0 | 10.0 | 0.00 | 0.45 | 0.31 | 63 | 1021.9 |
| 20260831224453 | 70 | 115 | 5.0 | 11.0 | 0.00 | 0.45 | 0.31 | 63 | 1022.0 |
| 20260831224220 | 70 | 134 | 3.0 | 11.0 | 0.00 | 0.45 | 0.31 | 62 | 1022.3 |
| 20260831223446 | 71 | 117 | 3.0 | 8.0 | 0.00 | 0.45 | 0.31 | 64 | 1022.2 |
| 20260831222948 | 70 | 133 | 4.0 | 8.0 | 0.00 | 0.45 | 0.31 | 63 | 1022.4 |
| 20260831222447 | 70 | 228 | 4.0 | 11.0 | 0.00 | 0.45 | 0.31 | 63 | 1022.4 |
| 20260831221946 | 70 | 146 | 3.0 | 11.0 | 0.00 | 0.45 | 0.31 | 65 | 1022.4 |
| 20260831221448 | 70 | 141 | 4.0 | 12.0 | 0.00 | 0.45 | 0.31 | 65 | 1022.4 |
| 20260831221213 | 69 | 156 | 4.0 | 12.0 | 0.00 | 0.45 | 0.31 | 65 | 1022.5 |
| 20260831220443 | 69 | 150 | 3.0 | 7.0 | 0.00 | 0.45 | 0.31 | 64 | 1022.8 |
| 20260831215944 | 69 | 140 | 3.0 | 7.0 | 0.00 | 0.45 | 0.31 | 66 | 1022.9 |
| 20260831215444 | 68 | 119 | 3.0 | 6.0 | 0.00 | 0.45 | 0.31 | 69 | 1023.0 |
| 20260831215216 | 67 | 143 | 2.0 | 6.0 | 0.00 | 0.45 | 0.31 | 70 | 1023.1 |
| 20260831214444 | 67 | 124 | 3.0 | 6.0 | 0.00 | 0.45 | 0.31 | 67 | 1023.1 |
| 20260831213940 | 67 | 97 | 3.0 | 6.0 | 0.00 | 0.45 | 0.31 | 68 | 1023.2 |
| 20260831213439 | 67 | 97 | 3.0 | 6.0 | 0.00 | 0.45 | 0.31 | 67 | 1023.2 |
| 20260831213209 | 67 | 155 | 3.0 | 9.0 | 0.00 | 0.45 | 0.31 | 68 | 1023.4 |
| 20260831212440 | 67 | 113 | 3.0 | 9.0 | 0.00 | 0.45 | 0.31 | 69 | 1023.4 |
| 20260831211940 | 67 | 152 | 2.0 | 7.0 | 0.00 | 0.45 | 0.31 | 71 | 1023.5 |
| 20260831211710 | 67 | 79 | 2.0 | 6.0 | 0.00 | 0.45 | 0.31 | 71 | 1023.6 |
| 20260831211205 | 66 | 164 | 1.0 | 6.0 | 0.00 | 0.45 | 0.31 | 73 | 1023.6 |
| 20260831210435 | 66 | 146 | 1.0 | 5.0 | 0.00 | 0.45 | 0.31 | 77 | 1023.5 |
| 20260831205706 | 65 | 97 | 2.0 | 5.0 | 0.00 | 0.45 | 0.31 | 77 | 1023.6 |
| 20260831204935 | 65 | 161 | 1.0 | 5.0 | 0.00 | 0.45 | 0.31 | 76 | 1023.7 |
| 20260831204436 | 65 | 122 | 1.0 | 5.0 | 0.00 | 0.45 | 0.31 | 76 | 1023.7 |
| 20260831203931 | 65 | 138 | 1.0 | 5.0 | 0.00 | 0.45 | 0.31 | 76 | 1023.8 |
| 20260831203704 | 65 | 140 | 2.0 | 5.0 | 0.00 | 0.45 | 0.31 | 75 | 1023.9 |
| 20260831202931 | 65 | 113 | 1.0 | 8.0 | 0.00 | 0.45 | 0.31 | 75 | 1023.8 |
| 20260831202430 | 65 | 132 | 1.0 | 8.0 | 0.00 | 0.45 | 0.31 | 76 | 1023.9 |
| 20260831201930 | 65 | 121 | 1.0 | 8.0 | 0.00 | 0.45 | 0.31 | 75 | 1023.9 |
| 20260831201432 | 65 | 151 | 1.0 | 8.0 | 0.00 | 0.45 | 0.31 | 76 | 1024.1 |
| 20260831200926 | 65 | 212 | 3.0 | 9.0 | 0.00 | 0.45 | 0.31 | 76 | 1023.9 |
| 20260831200428 | 65 | 173 | 3.0 | 9.0 | 0.00 | 0.45 | 0.31 | 74 | 1023.9 |
| 20260831195928 | 65 | 197 | 3.0 | 9.0 | 0.00 | 0.45 | 0.31 | 74 | 1024.1 |
| 20260831195429 | 66 | 122 | 3.0 | 9.0 | 0.00 | 0.45 | 0.31 | 74 | 1024.2 |
| 20260831194929 | 66 | 102 | 3.0 | 9.0 | 0.00 | 0.45 | 0.31 | 73 | 1024.2 |
| 20260831194428 | 66 | 145 | 4.0 | 9.0 | 0.00 | 0.45 | 0.31 | 73 | 1024.3 |
| 20260831193927 | 66 | 146 | 5.0 | 11.0 | 0.00 | 0.45 | 0.31 | 70 | 1024.2 |
| 20260831193420 | 67 | 166 | 5.0 | 13.0 | 0.00 | 0.45 | 0.31 | 69 | 1024.1 |
| 20260831192915 | 67 | 175 | 5.0 | 13.0 | 0.00 | 0.45 | 0.31 | 68 | 1024.1 |
| 20260831192415 | 67 | 162 | 4.0 | 9.0 | 0.00 | 0.45 | 0.31 | 66 | 1023.9 |
| 20260831191915 | 67 | 158 | 3.0 | 8.0 | 0.00 | 0.45 | 0.31 | 65 | 1023.9 |
| 20260831191414 | 67 | 83 | 3.0 | 8.0 | 0.00 | 0.45 | 0.31 | 67 | 1023.8 |
| 20260831190917 | 67 | 93 | 4.0 | 10.0 | 0.00 | 0.45 | 0.31 | 67 | 1023.7 |
| 20260831190416 | 67 | 80 | 4.0 | 10.0 | 0.00 | 0.45 | 0.31 | 70 | 1023.8 |
| 20260831185917 | 66 | 88 | 4.0 | 10.0 | 0.00 | 0.45 | 0.31 | 71 | 1023.8 |
| 20260831184903 | 66 | 158 | 2.0 | 9.0 | 0.00 | 0.45 | 0.31 | 71 | 1024.1 |
| 20260831184405 | 65 | 83 | 3.0 | 9.0 | 0.00 | 0.45 | 0.31 | 74 | 1023.9 |
| 20260831183902 | 65 | 161 | 2.0 | 9.0 | 0.00 | 0.45 | 0.31 | 73 | 1024.1 |
| 20260831183401 | 65 | 101 | 2.0 | 8.0 | 0.00 | 0.45 | 0.31 | 76 | 1024.2 |
| 20260831182901 | 65 | 128 | 2.0 | 9.0 | 0.00 | 0.45 | 0.31 | 76 | 1024.1 |
| 20260831182403 | 65 | 83 | 2.0 | 9.0 | 0.00 | 0.45 | 0.31 | 76 | 1024.2 |
| 20260831181900 | 65 | 95 | 3.0 | 10.0 | 0.00 | 0.45 | 0.31 | 78 | 1024.3 |
| 20260831181404 | 65 | 133 | 4.0 | 10.0 | 0.00 | 0.45 | 0.31 | 78 | 1024.2 |
| 20260831180858 | 64 | 79 | 4.0 | 10.0 | 0.00 | 0.45 | 0.31 | 80 | 1024.2 |
| 20260831180630 | 64 | 84 | 5.0 | 10.0 | 0.00 | 0.45 | 0.31 | 81 | 1024.2 |
| 20260831175857 | 64 | 125 | 5.0 | 10.0 | 0.00 | 0.45 | 0.31 | 83 | 1024.2 |
| 20260831175358 | 64 | 72 | 5.0 | 10.0 | 0.00 | 0.45 | 0.31 | 83 | 1024.2 |
| 20260831174856 | 63 | 110 | 6.0 | 10.0 | 0.00 | 0.45 | 0.31 | 81 | 1024.2 |
| 20260831174628 | 63 | 138 | 5.0 | 13.0 | 0.00 | 0.45 | 0.31 | 84 | 1024.2 |
| 20260831173857 | 63 | 126 | 6.0 | 13.0 | 0.00 | 0.45 | 0.31 | 84 | 1024.3 |
| 20260831173358 | 62 | 80 | 7.0 | 14.0 | 0.00 | 0.45 | 0.31 | 85 | 1024.4 |
| 20260831173128 | 62 | 83 | 7.0 | 14.0 | 0.00 | 0.45 | 0.31 | 85 | 1024.4 |
| 20260831171852 | 61 | 64 | 8.0 | 15.0 | 0.00 | 0.45 | 0.31 | 86 | 1024.5 |
| 20260831171350 | 61 | 60 | 8.0 | 15.0 | 0.00 | 0.45 | 0.31 | 86 | 1024.8 |
| 20260831170852 | 61 | 75 | 8.0 | 13.0 | 0.00 | 0.45 | 0.31 | 86 | 1024.9 |
| 20260831170352 | 61 | 76 | 8.0 | 13.0 | 0.00 | 0.45 | 0.31 | 86 | 1024.9 |
| 20260831165853 | 61 | 108 | 6.0 | 13.0 | 0.00 | 0.45 | 0.31 | 86 | 1025.0 |
| 20260831165346 | 61 | 126 | 6.0 | 13.0 | 0.00 | 0.45 | 0.31 | 86 | 1025.0 |
| 20260831164847 | 61 | 79 | 5.0 | 13.0 | 0.00 | 0.45 | 0.31 | 86 | 1025.1 |
| 20260831164618 | 61 | 84 | 4.0 | 10.0 | 0.00 | 0.45 | 0.31 | 86 | 1025.2 |
| 20260831163846 | 61 | 73 | 5.0 | 12.0 | 0.00 | 0.45 | 0.31 | 86 | 1025.2 |
| 20260831163618 | 61 | 76 | 6.0 | 12.0 | 0.00 | 0.45 | 0.31 | 86 | 1025.0 |
| 20260831162846 | 61 | 66 | 5.0 | 13.0 | 0.00 | 0.45 | 0.31 | 86 | 1025.0 |
| 20260831162340 | 61 | 157 | 6.0 | 13.0 | 0.00 | 0.45 | 0.31 | 86 | 1024.9 |
| 20260831161840 | 61 | 98 | 6.0 | 15.0 | 0.00 | 0.45 | 0.31 | 85 | 1024.9 |
| 20260831161341 | 61 | 105 | 7.0 | 16.0 | 0.00 | 0.45 | 0.31 | 85 | 1024.9 |
| 20260831160840 | 61 | 49 | 6.0 | 16.0 | 0.00 | 0.45 | 0.31 | 85 | 1024.9 |
| 20260831160340 | 61 | 72 | 6.0 | 13.0 | 0.00 | 0.45 | 0.31 | 85 | 1024.7 |
| 20260831155839 | 61 | 95 | 5.0 | 13.0 | 0.00 | 0.45 | 0.31 | 85 | 1024.8 |
| 20260831155334 | 61 | 92 | 4.0 | 9.0 | 0.00 | 0.45 | 0.31 | 85 | 1024.7 |
| 20260831154834 | 61 | 100 | 4.0 | 9.0 | 0.00 | 0.45 | 0.31 | 85 | 1024.5 |
| 20260831154334 | 61 | 145 | 4.0 | 9.0 | 0.01 | 0.45 | 0.31 | 85 | 1024.5 |
| 20260831153834 | 61 | 111 | 3.0 | 11.0 | 0.01 | 0.46 | 0.31 | 85 | 1024.5 |
| 20260831153334 | 61 | 130 | 3.0 | 11.0 | 0.01 | 0.46 | 0.31 | 85 | 1024.5 |
| 20260831152835 | 61 | 139 | 3.0 | 10.0 | 0.01 | 0.46 | 0.31 | 86 | 1024.4 |
| 20260831152327 | 61 | 89 | 4.0 | 11.0 | 0.01 | 0.46 | 0.31 | 86 | 1024.4 |
| 20260831151826 | 61 | 80 | 5.0 | 11.0 | 0.01 | 0.46 | 0.31 | 86 | 1024.2 |
| 20260831151328 | 60 | 66 | 6.0 | 11.0 | 0.01 | 0.46 | 0.31 | 87 | 1024.1 |
| 20260831150827 | 60 | 100 | 7.0 | 13.0 | 0.01 | 0.46 | 0.31 | 87 | 1023.8 |
| 20260831150328 | 60 | 60 | 7.0 | 13.0 | 0.01 | 0.46 | 0.31 | 87 | 1023.8 |
| 20260831145828 | 60 | 71 | 5.0 | 13.0 | 0.01 | 0.46 | 0.31 | 87 | 1023.8 |
| 20260831145322 | 60 | 67 | 5.0 | 12.0 | 0.01 | 0.46 | 0.31 | 86 | 1023.9 |
| 20260831144822 | 60 | 127 | 6.0 | 12.0 | 0.01 | 0.46 | 0.31 | 85 | 1024.1 |
| 20260831144322 | 61 | 79 | 6.0 | 11.0 | 0.00 | 0.45 | 0.30 | 84 | 1023.9 |
| 20260831144053 | 61 | 105 | 6.0 | 13.0 | 0.00 | 0.45 | 0.30 | 82 | 1023.9 |
| 20260831143320 | 62 | 119 | 5.0 | 13.0 | 0.00 | 0.45 | 0.30 | 80 | 1024.1 |
| 20260831142820 | 62 | 115 | 3.0 | 9.0 | 0.00 | 0.45 | 0.30 | 79 | 1024.1 |
| 20260831142547 | 62 | 93 | 2.0 | 7.0 | 0.00 | 0.45 | 0.30 | 78 | 1024.1 |
| 20260831142045 | 62 | 112 | 1.0 | 7.0 | 0.00 | 0.45 | 0.30 | 77 | 1023.7 |
| 20260831141548 | 62 | 74 | 1.0 | 5.0 | 0.00 | 0.45 | 0.30 | 78 | 1023.5 |
| 20260831140816 | 62 | 100 | 1.0 | 5.0 | 0.00 | 0.45 | 0.30 | 76 | 1023.2 |
| 20260831140314 | 62 | 134 | 0.0 | 3.0 | 0.00 | 0.45 | 0.30 | 78 | 1023.1 |
| 20260831135812 | 63 | 223 | 1.0 | 2.0 | 0.00 | 0.45 | 0.30 | 78 | 1023.1 |
| 20260831135306 | 63 | 94 | 1.0 | 4.0 | 0.00 | 0.45 | 0.30 | 75 | 1022.8 |
| 20260831134803 | 63 | 85 | 2.0 | 5.0 | 0.00 | 0.45 | 0.30 | 76 | 1022.8 |
| 20260831134302 | 63 | 107 | 1.0 | 6.0 | 0.00 | 0.45 | 0.30 | 75 | 1022.5 |
| 20260831133800 | 63 | 98 | 2.0 | 6.0 | 0.00 | 0.45 | 0.30 | 76 | 1022.6 |
| 20260831133300 | 63 | 114 | 2.0 | 7.0 | 0.00 | 0.45 | 0.30 | 76 | 1022.4 |
| 20260831132756 | 62 | 120 | 3.0 | 7.0 | 0.00 | 0.45 | 0.30 | 77 | 1022.3 |
| 20260831132526 | 62 | 91 | 3.0 | 7.0 | 0.00 | 0.45 | 0.30 | 78 | 1022.2 |
| 20260831131254 | 61 | 77 | 3.0 | 6.0 | 0.00 | 0.45 | 0.30 | 79 | 1021.8 |
| 20260831130754 | 61 | 67 | 3.0 | 6.0 | 0.00 | 0.45 | 0.30 | 81 | 1021.7 |
| 20260831130255 | 61 | 69 | 3.0 | 6.0 | 0.00 | 0.45 | 0.30 | 81 | 1021.6 |
| 20260831125750 | 61 | 53 | 3.0 | 5.0 | 0.00 | 0.45 | 0.30 | 81 | 1021.6 |
| 20260831125249 | 60 | 77 | 2.0 | 5.0 | 0.00 | 0.45 | 0.30 | 82 | 1021.3 |
| 20260831124750 | 60 | 91 | 1.0 | 5.0 | 0.00 | 0.45 | 0.30 | 83 | 1021.3 |
| 20260831124521 | 60 | 102 | 1.0 | 5.0 | 0.00 | 0.45 | 0.30 | 84 | 1021.1 |
| 20260831124018 | 60 | 48 | 2.0 | 5.0 | 0.00 | 0.45 | 0.30 | 84 | 1021.0 |
| 20260831123248 | 60 | 48 | 3.0 | 7.0 | 0.00 | 0.45 | 0.30 | 84 | 1021.0 |
| 20260831122744 | 59 | 67 | 3.0 | 7.0 | 0.00 | 0.45 | 0.30 | 85 | 1021.1 |
| 20260831122244 | 59 | 86 | 4.0 | 10.0 | 0.00 | 0.45 | 0.30 | 85 | 1021.0 |
| 20260831121744 | 59 | 86 | 4.0 | 10.0 | 0.00 | 0.45 | 0.30 | 85 | 1021.0 |
| 20260831121244 | 59 | 25 | 5.0 | 11.0 | 0.00 | 0.45 | 0.30 | 85 | 1021.0 |
| 20260831120742 | 59 | 76 | 5.0 | 11.0 | 0.00 | 0.45 | 0.30 | 86 | 1020.9 |
| 20260831120242 | 59 | 84 | 4.0 | 9.0 | 0.00 | 0.45 | 0.30 | 86 | 1020.9 |
| 20260831120009 | 59 | 74 | 4.0 | 8.0 | 0.00 | 0.45 | 0.30 | 87 | 1020.9 |
| 20260831115238 | 59 | 78 | 4.0 | 7.0 | 0.00 | 0.45 | 0.30 | 87 | 1020.9 |
| 20260831115009 | 58 | 101 | 4.0 | 7.0 | 0.00 | 0.45 | 0.30 | 88 | 1020.9 |
| 20260831114238 | 58 | 65 | 4.0 | 8.0 | 0.00 | 0.45 | 0.30 | 90 | 1020.9 |
| 20260831113736 | 58 | 65 | 3.0 | 8.0 | 0.00 | 0.45 | 0.30 | 92 | 1020.9 |
| 20260831113238 | 58 | 66 | 2.0 | 7.0 | 0.00 | 0.45 | 0.30 | 92 | 1021.0 |
| 20260831112732 | 57 | 70 | 1.0 | 5.0 | 0.00 | 0.45 | 0.30 | 93 | 1021.0 |
| 20260831112232 | 57 | 74 | 1.0 | 3.0 | 0.00 | 0.45 | 0.30 | 93 | 1021.0 |
| 20260831111732 | 57 | 74 | 1.0 | 3.0 | 0.00 | 0.45 | 0.30 | 92 | 1020.9 |
| 20260831111232 | 57 | 77 | 1.0 | 7.0 | 0.00 | 0.45 | 0.30 | 92 | 1021.0 |
| 20260831110729 | 57 | 69 | 1.0 | 7.0 | 0.00 | 0.45 | 0.30 | 92 | 1020.9 |
| 20260831110230 | 58 | 70 | 2.0 | 8.0 | 0.00 | 0.45 | 0.30 | 92 | 1020.9 |
| 20260831105726 | 58 | 70 | 3.0 | 8.0 | 0.00 | 0.45 | 0.30 | 92 | 1021.0 |
| 20260831105226 | 58 | 53 | 3.0 | 7.0 | 0.00 | 0.45 | 0.30 | 91 | 1020.9 |
| 20260831104724 | 58 | 80 | 3.0 | 7.0 | 0.00 | 0.45 | 0.30 | 91 | 1020.9 |
| 20260831104224 | 58 | 20 | 3.0 | 6.0 | 0.00 | 0.45 | 0.30 | 91 | 1020.9 |
| 20260831103724 | 58 | 84 | 1.0 | 5.0 | 0.00 | 0.45 | 0.30 | 91 | 1021.0 |
| 20260831103224 | 58 | 91 | 0.0 | 2.0 | 0.00 | 0.45 | 0.30 | 90 | 1021.2 |
| 20260831102718 | 58 | 91 | 0.0 | 3.0 | 0.00 | 0.45 | 0.30 | 89 | 1021.1 |
| 20260831101945 | 59 | 91 | 0.0 | 3.0 | 0.00 | 0.45 | 0.30 | 88 | 1020.9 |
| 20260831101212 | 59 | 91 | 1.0 | 5.0 | 0.00 | 0.45 | 0.30 | 87 | 1021.0 |
| 20260831100211 | 59 | 56 | 3.0 | 7.0 | 0.02 | 0.45 | 0.30 | 87 | 1020.7 |
| 20260831095709 | 59 | 41 | 4.0 | 7.0 | 0.03 | 0.45 | 0.30 | 88 | 1020.7 |
| 20260831095208 | 58 | 46 | 5.0 | 9.0 | 0.04 | 0.45 | 0.30 | 89 | 1020.9 |
| 20260831094710 | 59 | 39 | 5.0 | 11.0 | 0.04 | 0.45 | 0.30 | 89 | 1020.9 |
| 20260831094210 | 59 | 47 | 5.0 | 11.0 | 0.05 | 0.45 | 0.30 | 88 | 1021.2 |
| 20260831093710 | 59 | 93 | 7.0 | 14.0 | 0.06 | 0.45 | 0.30 | 88 | 1021.3 |
| 20260831093211 | 58 | 45 | 7.0 | 14.0 | 0.06 | 0.45 | 0.30 | 90 | 1021.3 |
| 20260831092704 | 58 | 60 | 5.0 | 9.0 | 0.07 | 0.45 | 0.30 | 91 | 1021.5 |
| 20260831092203 | 58 | 65 | 5.0 | 10.0 | 0.08 | 0.45 | 0.30 | 91 | 1021.8 |
| 20260831091704 | 58 | 72 | 5.0 | 10.0 | 0.09 | 0.45 | 0.30 | 91 | 1022.4 |
| 20260831091204 | 58 | 91 | 4.0 | 9.0 | 0.11 | 0.45 | 0.30 | 91 | 1022.6 |
| 20260831090935 | 58 | 71 | 5.0 | 10.0 | 0.13 | 0.45 | 0.30 | 91 | 1022.9 |
| 20260831090205 | 58 | 57 | 4.0 | 10.0 | 0.11 | 0.42 | 0.28 | 91 | 1023.0 |
| 20260831085659 | 58 | 17 | 5.0 | 11.0 | 0.13 | 0.42 | 0.27 | 91 | 1023.1 |
| 20260831085429 | 59 | 48 | 5.0 | 11.0 | 0.13 | 0.41 | 0.27 | 91 | 1023.4 |
| 20260831084659 | 58 | 43 | 4.0 | 9.0 | 0.14 | 0.41 | 0.26 | 91 | 1023.5 |
| 20260831084158 | 58 | 73 | 4.0 | 10.0 | 0.14 | 0.40 | 0.25 | 91 | 1023.4 |
| 20260831083658 | 58 | 28 | 4.0 | 10.0 | 0.14 | 0.39 | 0.25 | 92 | 1023.2 |
| 20260831083158 | 58 | 337 | 4.0 | 8.0 | 0.16 | 0.39 | 0.24 | 92 | 1023.4 |
| 20260831082656 | 58 | 356 | 3.0 | 8.0 | 0.16 | 0.38 | 0.23 | 92 | 1023.2 |
| 20260831082155 | 58 | 31 | 2.0 | 8.0 | 0.16 | 0.37 | 0.22 | 91 | 1023.4 |
| 20260831081928 | 58 | 348 | 1.0 | 8.0 | 0.17 | 0.36 | 0.21 | 91 | 1023.7 |
| 20260831081155 | 59 | 337 | 0.0 | 3.0 | 0.16 | 0.34 | 0.20 | 91 | 1024.1 |
| 20260831080653 | 59 | 343 | 0.0 | 2.0 | 0.14 | 0.32 | 0.18 | 91 | 1024.2 |
| 20260831080153 | 60 | 320 | 0.0 | 2.0 | 0.15 | 0.31 | 0.16 | 91 | 1024.5 |
| 20260831075646 | 60 | 258 | 0.0 | 4.0 | 0.19 | 0.29 | 0.14 | 92 | 1024.9 |
| 20260831075146 | 60 | 258 | 0.0 | 4.0 | 0.24 | 0.28 | 0.13 | 91 | 1025.1 |
| 20260831074646 | 60 | 258 | 1.0 | 4.0 | 0.26 | 0.27 | 0.12 | 91 | 1024.8 |
| 20260831074146 | 60 | 257 | 0.0 | 4.0 | 0.25 | 0.26 | 0.11 | 91 | 1024.5 |
| 20260831073647 | 60 | 53 | 0.0 | 2.0 | 0.24 | 0.25 | 0.10 | 92 | 1024.7 |
| 20260831073146 | 61 | 53 | 1.0 | 10.0 | 0.22 | 0.23 | 0.08 | 91 | 1024.8 |
| 20260831072643 | 61 | 53 | 2.0 | 10.0 | 0.21 | 0.22 | 0.07 | 91 | 1024.9 |
| 20260831072143 | 61 | 250 | 3.0 | 15.0 | 0.20 | 0.21 | 0.06 | 90 | 1024.8 |
| 20260831071913 | 61 | 254 | 2.0 | 15.0 | 0.18 | 0.19 | 0.04 | 89 | 1024.5 |
| 20260831071142 | 62 | 272 | 4.0 | 16.0 | 0.17 | 0.18 | 0.03 | 90 | 1024.4 |
| 20260831070640 | 62 | 252 | 4.0 | 16.0 | 0.17 | 0.18 | 0.03 | 89 | 1023.9 |
| 20260831070139 | 62 | 354 | 2.0 | 12.0 | 0.15 | 0.16 | 0.01 | 88 | 1023.6 |
| 20260831065905 | 63 | 137 | 3.0 | 12.0 | 0.09 | 0.10 | 0.10 | 87 | 1023.5 |
| 20260831065135 | 63 | 153 | 4.0 | 13.0 | 0.01 | 0.02 | 0.04 | 86 | 1023.1 |
| 20260831064634 | 64 | 228 | 4.0 | 16.0 | 0.00 | 0.01 | 0.01 | 85 | 1022.8 |
| 20260831064134 | 65 | 87 | 5.0 | 16.0 | 0.00 | 0.01 | 0.01 | 84 | 1022.6 |